User: anonymous   Login
Location: *
(33.8649°S, 62.1526°E)
Time: 21:24:38
(UTC+00:00)
Language:

SPOT 3 Rocket - Orbit

View from above orbital plane
View from above orbital plane
View from above satellite
View from above satellite

Ground track
Ground track

The orbit data is extracted from the following two-line orbital elements,

1 22830U 93061H   21111.76505678  .00000009  00000-0  20326-4 0  9990
2 22830  98.7191 169.1018 0011840 134.6150 225.6000 14.31478110438934
Epoch (UTC): 21 April 2021 18:21:40
Eccentricity: 0.0011840
inclination: 98.7191°
perigee height: 778 km
apogee height: 795 km
right ascension of ascending node: 169.1018°
argument of perigee: 134.6150°
revolutions per day: 14.31478110
mean anomaly at epoch: 225.6000°
orbit number at epoch: 43893

The dashed part of the orbit path shows where the satellite is in the earth's shadow,  

DLR